EW0183 Weather Reports


time (UTC)temp
C
wind
direction
speed
KPH
gust
KPH
rain 1hr
cm
rain 24hr
cm
rain mn
cm
humidity
%
barometer
mb
20260906174557 34 99 4.8 11.3 0.00 0.00 0.00 62 1013.4
20260906173045 33 107 3.2 11.3 0.00 0.00 0.00 64 1013.5
20260906171543 33 173 1.6 8.0 0.00 0.00 0.00 64 1013.8
20260906170042 33 123 6.4 12.9 0.00 0.00 0.00 63 1014.1
20260906164538 32 70 4.8 8.0 0.00 0.00 0.00 68 1014.2
20260906163036 32 171 3.2 8.0 0.00 0.00 0.00 66 1014.3
20260906161535 32 103 3.2 8.0 0.00 0.00 0.00 69 1014.3
20260906160034 31 159 3.2 12.9 0.00 0.00 0.00 71 1014.4
20260906154533 31 193 3.2 11.3 0.00 0.00 0.00 72 1014.2
20260906153035 30 81 1.6 8.0 0.00 0.00 0.00 75 1014.0
20260906151529 30 135 3.2 8.0 0.00 0.00 0.00 75 1014.0
20260906150025 29 90 3.2 12.9 0.00 0.00 0.00 76 1014.1
20260906144521 28 93 3.2 12.9 0.00 0.00 0.00 77 1014.1
20260906143019 28 89 0.0 9.7 0.00 0.00 0.00 78 1014.2
20260906141514 28 98 6.4 11.3 0.00 0.00 0.00 78 1014.4
20260906140017 27 113 1.6 6.4 0.00 0.00 0.00 81 1014.2
20260906134511 26 108 0.0 4.8 0.00 0.00 0.00 86 1014.3
20260906133009 25 104 0.0 0.0 0.00 0.00 0.00 94 1014.2
20260906131559 23 301 0.0 0.0 0.00 0.00 0.00 96 1014.1
20260906130056 23 301 0.0 0.0 0.00 0.00 0.00 97 1014.0
20260906124553 22 360 0.0 0.0 0.00 0.00 0.00 98 1013.8
20260906123057 21 301 0.0 0.0 0.00 0.00 0.00 97 1013.5
20260906121551 21 301 0.0 0.0 0.00 0.00 0.00 97 1013.5
20260906120052 21 301 0.0 0.0 0.00 0.00 0.00 96 1013.2
20260906114548 21 301 0.0 0.0 0.00 0.00 0.00 96 1013.2
20260906113046 21 301 0.0 0.0 0.00 0.00 0.00 96 1013.0
20260906111547 21 301 0.0 0.0 0.00 0.00 0.00 96 1013.0
20260906110051 21 301 0.0 0.0 0.00 0.00 0.00 96 1012.8
20260906104543 21 301 0.0 0.0 0.00 0.00 0.00 96 1012.8
20260906103058 21 301 0.0 0.0 0.00 0.00 0.00 96 1012.7
20260906101542 21 301 0.0 0.0 0.00 0.00 0.00 96 1012.8
20260906100041 21 301 0.0 0.0 0.00 0.00 0.00 96 1012.7
20260906094540 22 301 0.0 0.0 0.00 0.00 0.00 95 1012.7
20260906093040 22 301 0.0 0.0 0.00 0.00 0.00 95 1012.6
20260906091538 22 301 0.0 0.0 0.00 0.00 0.00 95 1012.4
20260906090054 22 301 0.0 0.0 0.00 0.00 0.00 95 1012.3
20260906084536 22 302 0.0 0.0 0.00 0.00 0.00 95 1012.2
20260906083037 22 302 0.0 0.0 0.00 0.00 0.00 95 1012.2
20260906081533 22 302 0.0 0.0 0.00 0.00 0.00 95 1012.0
20260906080032 22 360 0.0 0.0 0.00 0.00 0.00 95 1012.0
20260906074532 22 360 0.0 0.0 0.00 0.00 0.00 94 1012.1
20260906073030 22 360 0.0 0.0 0.00 0.00 0.00 94 1012.0
20260906071528 22 360 0.0 0.0 0.00 0.00 0.00 94 1012.1
20260906070035 23 302 0.0 0.0 0.00 0.00 0.00 94 1012.2
20260906064526 23 302 0.0 0.0 0.00 0.00 0.00 93 1012.3
20260906063040 23 302 0.0 0.0 0.00 0.00 0.00 93 1012.5
20260906061522 23 304 0.0 0.0 0.00 0.00 0.00 93 1012.5
20260906060022 23 304 0.0 0.0 0.00 0.00 0.00 93 1012.5
20260906054520 23 305 0.0 0.0 0.00 0.00 0.00 92 1012.5
20260906053019 23 306 0.0 0.0 0.00 0.00 0.00 92 1012.5
20260906051537 23 306 0.0 0.0 0.00 0.00 0.00 92 1012.6
20260906050018 23 306 0.0 0.0 0.00 0.00 0.00 92 1012.6
20260906044518 23 307 0.0 0.0 0.00 0.00 0.00 92 1012.4
20260906043018 23 360 0.0 0.0 0.00 0.00 0.00 92 1012.4
20260906041518 23 360 0.0 0.0 0.00 0.00 0.00 91 1012.4
20260906040030 24 360 0.0 0.0 0.00 0.00 0.00 91 1012.2
20260906034521 24 360 0.0 0.0 0.00 0.00 0.00 91 1012.1
20260906033016 25 360 0.0 0.0 0.00 0.00 0.00 90 1012.0
20260906031516 25 360 0.0 0.0 0.00 0.00 0.00 90 1011.9
20260906030016 25 360 0.0 0.0 0.00 0.00 0.00 89 1011.7
20260906024516 25 360 0.0 0.0 0.00 0.00 0.00 89 1011.5
20260906023014 25 360 0.0 0.0 0.00 0.00 0.00 89 1011.3
20260906021514 26 360 0.0 0.0 0.00 0.00 0.00 88 1011.1
20260906020018 26 360 0.0 0.0 0.00 0.00 0.00 88 1011.0
20260906014520 26 360 0.0 0.0 0.00 0.00 0.00 86 1010.7
20260906013014 27 360 0.0 0.0 0.00 0.00 0.00 86 1010.6
20260906011512 27 304 0.0 0.0 0.00 0.00 0.00 86 1010.5
20260906010012 28 301 0.0 0.0 0.00 0.00 0.00 86 1010.4
20260906004512 28 301 0.0 0.0 0.00 0.00 0.00 86 1010.4
20260906003011 29 301 0.0 0.0 0.00 0.00 0.00 84 1010.4
20260906001510 30 301 0.0 0.0 0.00 0.00 0.00 83 1010.3
20260906000011 30 301 0.0 0.0 0.00 0.00 0.00 82 1010.3
20260905234509 31 301 0.0 3.2 0.00 0.00 0.00 78 1010.3
20260905233009 32 312 1.6 4.8 0.00 0.00 0.00 72 1010.2
20260905231518 33 339 0.0 3.2 0.00 0.00 0.00 68 1010.2
20260905230008 34 107 0.0 1.6 0.00 0.00 0.00 63 1010.1
20260905224507 35 107 0.0 8.0 0.00 0.00 0.00 61 1010.2
20260905223005 36 115 1.6 6.4 0.00 0.00 0.00 53 1010.2
20260905221506 36 351 0.0 3.2 0.00 0.00 0.00 55 1010.2
20260905220004 37 186 0.0 6.4 0.00 0.00 0.00 50 1010.2
20260905214502 36 84 6.4 12.9 0.00 0.00 0.00 48 1010.5
20260905213100 36 79 3.2 11.3 0.00 0.00 0.00 49 1010.7
20260905211557 37 88 1.6 11.3 0.00 0.00 0.00 50 1010.9
20260905210106 37 34 4.8 12.9 0.00 0.00 0.00 49 1011.1
20260905204557 37 360 1.6 8.0 0.00 0.00 0.00 49 1011.3
20260905203108 36 229 0.0 6.4 0.00 0.00 0.00 50 1011.4
20260905201552 36 67 6.4 14.5 0.00 0.00 0.00 51 1011.6
20260905200056 35 207 0.0 14.5 0.00 0.00 0.00 51 1011.8
20260905194551 36 65 8.0 12.9 0.00 0.00 0.00 50 1012.1
20260905193048 36 89 1.6 6.4 0.00 0.00 0.00 52 1012.2
20260905191546 35 113 3.2 9.7 0.00 0.00 0.00 52 1012.3
20260905190044 35 240 0.0 6.4 0.00 0.00 0.00 54 1012.5
20260905184545 34 120 0.0 6.4 0.00 0.00 0.00 58 1012.5
20260905183040 34 157 0.0 8.0 0.00 0.00 0.00 59 1012.7
20260905181540 34 141 1.6 6.4 0.00 0.00 0.00 58 1012.9
20260905180040 34 103 3.2 6.4 0.00 0.00 0.00 59 1013.1